Flag for Pakistan Weather past 2 weeks in Peshawar, Pakistan

Now
52 °F

Fog.


Feels Like: 51 °F
Forecast: 39 / 64 °F
Wind: 5 mph from Southeast

Location: Peshawar Airport

Current Time: Mar 5, 2015 at 5:53:50 AM

Latest Report: Mar 5, 2015 at 5:00 AM


Visibility: 2 mi

Pressure: 30.01 "Hg

Humidity: 88%

Dew point: 48 °F

Location of PeshawarLocation

Historic Weather in Peshawar — Graph

°F

Peshawar temperature yesterday

Maximum temperature yesterday: 64 °F (at 4:00 PM)
Minimum temperature yesterday: 46 °F (at 5:00 AM)
Average temperature yesterday: 54 °F

Past Weeks' High & Low Weather Summary

 TemperatureHumidityPressure
High77 °F (Feb 22, 2:00 PM)100% (Feb 23, 11:00 AM)30.15 "Hg (Feb 23, 11:00 AM)
Low46 °F (Feb 27, 7:00 AM)31% (Feb 27, 3:00 PM)29.56 "Hg (Feb 26, 12:00 AM)
Average58 °F72%29.96 "Hg
* Reported Feb 18 5:00 AM — Mar 5 5:00 AM, Peshawar, Weather by CustomWeather, © 2015

Note: Actual official high and low records may vary slightly from our data, if they occured in-between our weather recording intervals... More about our weather records

Advertising

Peshawar weather history for previous 24 hours

 ConditionsComfort  
Time TempWeatherWind HumidityBarometerVisibility
5:00 AM
Thu, Mar 5
52 °FFog.5 mph88%30.01 "Hg2 mi
4:00 AM52 °FRain. Mostly cloudy.No wind88%30.01 "Hg2 mi
3:00 AM52 °FLight rain. Mostly cloudy.5 mph88%30.01 "Hg2 mi
2:00 AM52 °FRain. Mostly cloudy.7 mph88%30.01 "Hg2 mi
1:00 AM52 °FLight rain. Mostly cloudy.5 mph88%30.01 "Hg2 mi
12:00 AM52 °FThundershowers. Partly cloudy.No wind88%30.01 "Hg2 mi
11:00 PM
Wed, Mar 4
54 °FThundershowers. Partly cloudy.No wind82%30.01 "Hg2 mi
10:00 PM54 °FThundershowers. Partly cloudy.No wind82%30.01 "Hg2 mi
9:00 PM54 °FFog.No wind82%29.98 "Hg2 mi
8:00 PM54 °FThundershowers. Partly cloudy.9 mph88%29.98 "Hg2 mi
7:00 PM55 °FFog.9 mph88%29.98 "Hg2 mi
6:00 PM55 °FPartly sunny.12 mph63%29.95 "Hg2 mi
5:00 PM63 °FThunderstorms. Broken clouds.12 mph49%29.98 "Hg2 mi
4:00 PM64 °FBroken clouds.9 mph49%29.95 "Hg2 mi
3:00 PM63 °FBroken clouds.9 mph52%29.95 "Hg2 mi
2:00 PM61 °FCool.N/A72%29.95 "HgN/A
12:00 PM61 °FScattered clouds.5 mph55%30.01 "Hg2 mi
11:00 AM59 °FPartly sunny.No wind59%30.01 "Hg2 mi
10:00 AM57 °FScattered clouds.No wind63%30.01 "Hg2 mi
9:00 AM54 °FFog.No wind67%30.01 "Hg3 mi
8:00 AM48 °FFog.5 mph82%29.98 "Hg2 mi
7:00 AM46 °FFog.No wind87%29.98 "Hg2 mi
6:00 AM46 °FFog.5 mph93%29.95 "Hg2 mi
5:00 AM46 °FFog.5 mph93%29.95 "Hg2 mi
Weather by CustomWeather, © 2015

See weather overviewHow to use our weather pages